Погода в Караколе

Россия / Республика Алтай     50°48′52″N   85°56′42″E
темп.,
°C
ветер,
м/с
пор.,
м/с
влажн.,
%
обл.,
%
осадки,
мм/ч
давл.,
гПа
погр.,
м
15 августа, пн
пн1501:00+8юз22850 0.0 101318
04:00+7юз228611 0.0 101316
07:00+8юз22815 0.0 101221
10:00+16з464815 0.0 10101845
13:00+19зсз693934 0.0 10082622
16:00+17ссз684944 0.0 10091483
19:00+13св236477 0.0 1011254
22:00+6ссз11765 0.0 101313
16 августа, вт
вт1601:00+4зюз11839 0.0 101413
04:00+2юз228744 0.0 101415
07:00+6зюз117290 0.0 101387
10:00+10ссв126014 0.0 1012852
13:00+13с244454 0.1 10101838
16:00+15с454192 0.0 10091705
19:00+10с346457 0.0 1011765
22:00+6сз117281 0.0 101592
17 августа, ср
ср1701:00+4зюз117838 0.0 101512
04:00+1зюз119111 0.0 101613
07:00+1зюз118818 0.0 101623
10:00+8ссз216123 0.0 1012762
13:00+12ссз244555 0.0 10101456
16:00+14зсз583494 0.0 10082463
19:00+9ссз466098 0.0 10111046
22:00+5ю237896 0.1 101499
18 августа, чт
чт1801:00+2ююз228480 0.1 101525
04:00+2ю1183100 0.0 101416
07:00+4сз0179100 0.1 101369
10:00+7юз247892 0.6 1012896
13:00+8ссз347290 1.9 10131046
16:00+8ссв2272100 1.3 1011537
19:00+6св3384100 2.8 1012252
22:00+3ссз2298100 1.2 1014132
19 августа, пт
пт1901:00+2сз2298100 2.6 1014426
04:00+2сз119887 1.1 1014137
07:00+1сз1194100 1.1 1015107
10:00+2с119192 0.5 1015368
13:00+6сз236783 1.8 10131204
16:00+6сз246973 2.4 10141126
19:00+5ссз227715 3.9 1015572
22:000з119387 0.1 101914